Total_Precipitation_Accumulation
0.05 0.13 0.20 0.22 0.20 0.17 0.12 0.10 0.21 0.22 0.28 0.32 0.34 0.27 0.23 0.21 0.18 0.21 0.23 0.20 0.14 0.12 0.14 0.15 0.19 0.17 0.19 0.25 0.28 0.42 0.72 0.90 0.85 0.75 0.70 0.60 0.54 0.56 0.64 0.74 0.81 0.95 1.11 1.21
0.09 0.12 0.14 0.15 0.18 0.16 0.10 0.09 0.08 0.10 0.19 0.21 0.27 0.29 0.27 0.23 0.18 0.21 0.23 0.20 0.17 0.15 0.18 0.20 0.20 0.19 0.19 0.22 0.26 0.40 0.66 0.87 0.87 0.77 0.69 0.57 0.54 0.61 0.75 0.82 0.90 1.05 1.12 1.14
0.15 0.17 0.15 0.22 0.19 0.15 0.13 0.11 0.12 0.17 0.21 0.21 0.22 0.25 0.29 0.32 0.31 0.26 0.26 0.24 0.23 0.22 0.25 0.29 0.29 0.29 0.30 0.28 0.30 0.43 0.65 0.82 0.90 0.87 0.82 0.73 0.65 0.73 0.81 0.88 0.96 1.04 1.06 1.05
0.20 0.22 0.30 0.24 0.19 0.20 0.20 0.23 0.24 0.24 0.22 0.24 0.26 0.27 0.35 0.38 0.34 0.29 0.28 0.30 0.33 0.32 0.36 0.36 0.36 0.39 0.44 0.41 0.42 0.53 0.69 0.85 0.91 0.91 0.93 0.98 0.91 0.91 0.98 1.05 1.08 1.11 1.08 1.05
0.28 0.30 0.34 0.32 0.26 0.30 0.31 0.34 0.34 0.34 0.30 0.30 0.31 0.33 0.37 0.34 0.29 0.29 0.31 0.34 0.43 0.48 0.46 0.49 0.50 0.50 0.51 0.53 0.57 0.68 0.75 0.88 0.98 1.06 1.14 1.17 1.15 1.20 1.30 1.36 1.30 1.28 1.28 1.26
0.41 0.45 0.48 0.47 0.36 0.31 0.35 0.57 0.46 0.44 0.41 0.34 0.36 0.53 0.51 0.39 0.38 0.36 0.30 0.32 0.40 0.50 0.56 0.61 0.60 0.60 0.66 0.74 0.85 0.99 1.04 1.09 1.25 1.43 1.57 1.63 1.62 1.59 1.59 1.65 1.55 1.48 1.38 1.35
0.58 0.67 0.56 0.42 0.36 0.34 0.63 0.86 0.61 0.58 0.55 0.49 0.56 0.64 0.58 0.44 0.38 0.36 0.33 0.32 0.36 0.40 0.49 0.55 0.60 0.74 0.91 0.98 1.07 1.18 1.28 1.35 1.54 1.82 1.95 1.89 1.85 1.77 1.72 1.73 1.73 1.68 1.56 1.52
0.75 0.91 0.90 0.50 0.47 0.69 0.85 0.73 0.68 0.66 0.67 0.64 0.62 0.66 0.63 0.55 0.45 0.37 0.34 0.34 0.36 0.39 0.42 0.53 0.65 0.88 1.16 1.25 1.22 1.29 1.44 1.61 1.81 2.02 1.98 1.86 1.99 1.91 1.87 1.92 1.90 1.84 1.80 1.71
0.90 1.00 0.85 0.60 0.72 0.88 0.81 0.74 0.70 0.67 0.66 0.59 0.56 0.64 0.62 0.53 0.49 0.38 0.33 0.36 0.42 0.47 0.55 0.63 0.78 1.09 1.36 1.43 1.48 1.51 1.59 1.72 1.83 1.91 2.04 2.18 2.23 2.16 2.08 2.03 2.01 1.90 1.84 1.76
0.98 1.05 0.92 0.75 0.74 0.72 0.67 0.64 0.65 0.60 0.58 0.56 0.53 0.54 0.52 0.46 0.41 0.38 0.37 0.41 0.48 0.55 0.68 0.85 1.00 1.26 1.37 1.40 1.42 1.45 1.46 1.47 1.59 1.76 1.87 1.97 2.18 2.23 2.20 2.10 2.07 2.02 1.90 1.78
1.09 1.22 1.12 0.98 0.80 0.68 0.65 0.61 0.64 0.69 0.64 0.62 0.59 0.54 0.46 0.40 0.39 0.39 0.39 0.44 0.55 0.63 0.72 0.84 1.00 1.16 1.20 1.28 1.37 1.47 1.46 1.40 1.40 1.47 1.61 1.71 1.83 1.93 1.94 1.96 1.77 1.69 1.59 1.51
1.05 0.98 0.97 1.03 0.88 0.69 0.64 0.70 0.78 0.88 0.84 0.69 0.60 0.58 0.53 0.46 0.40 0.36 0.37 0.44 0.55 0.65 0.75 0.84 0.96 1.13 1.20 1.27 1.36 1.43 1.43 1.36 1.35 1.38 1.48 1.57 1.63 1.58 1.41 1.35 1.17 1.05 1.03 1.01
0.70 0.73 0.82 0.87 0.84 0.77 0.73 0.84 0.96 0.99 0.85 0.64 0.53 0.52 0.48 0.42 0.38 0.37 0.39 0.46 0.59 0.67 0.74 0.82 0.89 1.03 1.18 1.32 1.41 1.48 1.43 1.31 1.23 1.20 1.25 1.30 1.41 1.56 1.62 1.40 1.17 0.98 0.87 0.77
0.61 0.72 0.83 0.88 0.94 0.85 0.80 0.86 0.88 0.79 0.72 0.61 0.50 0.45 0.41 0.34 0.29 0.29 0.32 0.40 0.50 0.60 0.65 0.71 0.80 0.89 1.02 1.18 1.28 1.32 1.32 1.22 1.12 1.12 1.17 1.21 1.28 1.40 1.55 1.56 1.32 1.00 0.86 0.75
0.63 0.65 0.75 0.77 0.82 0.85 0.87 0.86 0.85 0.76 0.68 0.66 0.60 0.52 0.44 0.39 0.37 0.37 0.39 0.45 0.55 0.63 0.66 0.70 0.80 0.87 1.01 1.16 1.23 1.21 1.17 1.09 1.02 1.05 1.08 1.06 1.12 1.20 1.30 1.36 1.28 1.12 0.94 0.76
0.72 0.66 0.70 0.73 0.69 0.73 0.76 0.73 0.69 0.63 0.54 0.51 0.49 0.47 0.44 0.40 0.41 0.42 0.47 0.61 0.81 0.83 0.78 0.79 0.81 0.82 0.99 1.15 1.19 1.16 1.07 0.89 0.83 0.89 0.94 0.96 1.03 1.10 1.14 1.21 1.20 1.13 1.01 0.77
0.76 0.77 0.72 0.68 0.65 0.63 0.57 0.52 0.51 0.47 0.43 0.40 0.38 0.34 0.32 0.33 0.39 0.46 0.56 0.65 0.74 0.75 0.75 0.82 0.78 0.76 0.92 1.07 1.12 1.09 0.99 0.84 0.64 0.62 0.72 0.80 0.90 0.99 1.03 1.04 1.07 1.05 0.90 0.64
0.64 0.62 0.58 0.55 0.55 0.55 0.51 0.45 0.39 0.36 0.34 0.32 0.31 0.30 0.31 0.38 0.52 0.66 0.75 0.77 0.73 0.64 0.62 0.67 0.64 0.66 0.81 0.87 0.92 0.98 0.92 0.84 0.69 0.60 0.64 0.69 0.77 0.88 0.90 0.87 0.87 0.86 0.76 0.57
0.51 0.47 0.43 0.40 0.34 0.33 0.36 0.36 0.33 0.29 0.27 0.27 0.29 0.33 0.38 0.48 0.63 0.76 0.83 0.93 0.96 0.85 0.67 0.58 0.53 0.58 0.72 0.74 0.76 0.89 0.88 0.80 0.69 0.62 0.64 0.63 0.66 0.77 0.79 0.76 0.73 0.69 0.63 0.56
0.48 0.43 0.39 0.35 0.28 0.24 0.24 0.25 0.26 0.26 0.27 0.30 0.33 0.38 0.47 0.61 0.77 0.89 0.96 1.00 1.01 0.97 0.78 0.62 0.55 0.56 0.62 0.67 0.73 0.78 0.81 0.76 0.65 0.60 0.62 0.67 0.67 0.70 0.66 0.63 0.61 0.57 0.54 0.52
0.45 0.43 0.43 0.35 0.28 0.24 0.22 0.21 0.24 0.30 0.35 0.37 0.43 0.51 0.62 0.76 0.87 1.00 1.20 1.21 0.97 0.85 0.72 0.61 0.55 0.53 0.55 0.62 0.68 0.74 0.78 0.79 0.69 0.59 0.58 0.61 0.62 0.64 0.62 0.61 0.56 0.50 0.50 0.50
0.37 0.37 0.34 0.28 0.26 0.26 0.23 0.21 0.26 0.36 0.45 0.49 0.49 0.56 0.69 0.81 0.94 1.07 1.14 1.28 1.15 0.98 0.73 0.58 0.51 0.47 0.47 0.54 0.58 0.67 0.71 0.73 0.67 0.58 0.53 0.53 0.55 0.62 0.64 0.59 0.54 0.47 0.47 0.50
0.28 0.30 0.30 0.25 0.23 0.24 0.21 0.21 0.26 0.37 0.50 0.58 0.60 0.66 0.78 0.83 0.96 1.28 1.35 1.20 1.12 1.00 0.71 0.56 0.52 0.44 0.40 0.42 0.52 0.60 0.62 0.64 0.62 0.52 0.46 0.44 0.48 0.55 0.60 0.58 0.56 0.49 0.47 0.46
0.28 0.27 0.28 0.26 0.21 0.21 0.23 0.26 0.31 0.40 0.47 0.51 0.51 0.58 0.74 0.82 0.84 0.90 1.11 1.23 1.17 1.01 0.74 0.60 0.51 0.42 0.37 0.36 0.49 0.60 0.63 0.62 0.60 0.49 0.40 0.39 0.44 0.52 0.55 0.55 0.54 0.49 0.46 0.44
0.29 0.27 0.25 0.24 0.26 0.32 0.39 0.45 0.52 0.55 0.56 0.56 0.49 0.46 0.57 0.72 0.84 0.81 0.85 0.98 1.09 0.98 0.81 0.68 0.57 0.51 0.41 0.39 0.48 0.58 0.62 0.61 0.54 0.47 0.44 0.48 0.53 0.57 0.54 0.51 0.51 0.47 0.47 0.47
0.31 0.27 0.24 0.22 0.26 0.36 0.49 0.64 0.78 0.80 0.79 0.79 0.65 0.51 0.52 0.58 0.64 0.69 0.76 0.81 0.87 0.88 0.80 0.75 0.65 0.58 0.52 0.50 0.53 0.59 0.65 0.67 0.58 0.53 0.55 0.61 0.61 0.58 0.57 0.51 0.46 0.46 0.44 0.42
0.30 0.26 0.22 0.24 0.30 0.40 0.55 0.70 0.86 0.91 0.90 0.93 0.80 0.59 0.50 0.53 0.55 0.61 0.67 0.75 0.77 0.78 0.78 0.73 0.67 0.59 0.53 0.53 0.55 0.57 0.62 0.65 0.62 0.60 0.59 0.59 0.60 0.60 0.57 0.52 0.48 0.47 0.46 0.43